DW3310 Weather Reports


time (UTC)temp
C
wind
direction
speed
KPH
gust
KPH
rain 1hr
cm
rain 24hr
cm
rain mn
cm
humidity
%
barometer
mb
20260507181549 11 360 0.0 0.0 0.00 0.71 0.00 44 1006.5
20260507180057 11 300 0.0 0.0 0.00 0.71 0.00 47 1006.4
20260507174557 12 310 0.0 0.0 0.00 0.89 0.00 47 1006.4
20260507173048 11 288 0.0 0.0 0.00 0.89 0.00 48 1006.4
20260507171559 11 360 0.0 0.0 0.00 0.89 0.00 56 1006.7
20260507170042 10 304 0.0 0.0 0.00 0.89 0.00 56 1006.9
20260507164548 10 294 0.0 0.0 0.00 0.89 0.00 53 1006.9
20260507163048 11 290 0.0 0.0 0.00 0.89 0.00 47 1007.1
20260507161543 10 178 0.0 0.0 0.00 0.89 0.00 54 1007.3
20260507160046 10 360 0.0 0.0 0.00 0.89 0.00 54 1007.2
20260507154534 10 360 0.0 0.0 0.00 0.89 0.00 64 1007.2
20260507153033 10 301 0.0 0.0 0.00 0.89 0.00 72 1007.5
20260507151531 8 360 0.0 0.0 0.00 0.89 0.00 74 1007.6
20260507150031 8 360 0.0 0.0 0.00 0.89 0.00 75 1007.6
20260507144534 8 360 0.0 0.0 0.00 0.89 0.00 73 1007.6
20260507143027 8 360 0.0 0.0 0.00 0.89 0.00 76 1007.6
20260507141526 8 360 0.0 0.0 0.00 0.89 0.00 77 1007.6
20260507140025 8 293 0.0 0.0 0.00 0.89 0.00 75 1007.7
20260507134523 8 360 0.0 0.0 0.00 0.89 0.00 76 1007.6
20260507133022 8 360 0.0 0.0 0.00 0.89 0.00 79 1007.6
20260507131520 8 360 0.0 0.0 0.00 0.89 0.00 80 1007.8
20260507130026 7 360 0.0 0.0 0.00 0.89 0.00 79 1007.8
20260507124518 7 360 0.0 0.0 0.00 0.89 0.00 78 1007.6
20260507123014 7 360 0.0 0.0 0.00 0.89 0.00 81 1007.6
20260507121514 6 360 0.0 0.0 0.00 0.89 0.00 82 1007.7
20260507120011 6 360 0.0 0.0 0.00 0.89 0.00 84 1007.9
20260507114511 6 360 0.0 0.0 0.00 0.89 0.00 85 1007.9
20260507113014 6 360 0.0 0.0 0.00 0.89 0.00 86 1007.7
20260507111513 5 360 0.0 0.0 0.00 0.89 0.00 87 1007.7
20260507110019 5 360 0.0 0.0 0.00 0.89 0.00 88 1007.6
20260507104505 5 360 0.0 0.0 0.00 0.89 0.00 89 1007.3
20260507103005 5 360 0.0 0.0 0.00 0.89 0.00 90 1007.3
20260507101504 5 360 0.0 0.0 0.00 0.89 0.00 91 1007.6
20260507100003 5 360 0.0 0.0 0.00 0.89 0.00 92 1007.3
20260507094559 5 360 0.0 0.0 0.00 0.89 0.00 92 1007.3
20260507093058 5 360 0.0 0.0 0.00 0.89 0.00 92 1007.3
20260507091557 5 360 0.0 0.0 0.00 0.89 0.00 93 1007.2
20260507090058 5 360 0.0 0.0 0.00 0.89 0.00 94 1006.7
20260507084554 5 360 0.0 0.0 0.00 0.89 0.00 94 1006.8
20260507083055 5 360 0.0 0.0 0.00 0.89 0.00 94 1006.8
20260507081550 5 360 0.0 0.0 0.00 0.89 0.00 94 1006.7
20260507080049 5 360 0.0 0.0 0.00 0.89 0.00 95 1006.5
20260507074604 5 360 0.0 0.0 0.00 0.89 0.00 95 1006.4
20260507073046 5 360 0.0 0.0 0.00 0.89 0.00 95 1006.2
20260507071541 5 360 0.0 0.0 0.00 0.89 0.00 95 1005.9
20260507070036 6 360 0.0 0.0 0.00 0.89 0.00 95 1005.9
20260507064533 6 360 0.0 0.0 0.00 0.89 0.00 95 1006.1
20260507063046 6 360 0.0 0.0 0.00 0.89 0.00 95 1006.0
20260507061533 6 360 0.0 0.0 0.00 0.89 0.00 96 1005.7
20260507060038 6 360 0.0 0.0 0.00 0.89 0.00 96 1005.8
20260507054525 6 360 0.0 0.0 0.00 0.89 0.00 96 1005.9
20260507053024 6 273 0.0 0.0 0.00 0.89 0.00 96 1005.5
20260507051524 6 360 0.0 0.0 0.00 0.89 0.00 96 1005.5
20260507050020 6 360 0.0 0.0 0.00 0.89 0.00 96 1005.5
20260507044519 7 360 0.0 0.0 0.00 0.89 0.00 96 1005.6
20260507043018 7 360 0.0 0.0 0.00 0.89 0.00 96 1005.7
20260507041515 7 360 0.0 0.0 0.00 0.89 0.00 96 1005.9
20260507040009 7 360 0.0 0.0 0.03 0.89 0.00 96 1005.6
20260507034520 7 360 0.0 0.0 0.05 0.89 0.89 96 1005.5
20260507033006 7 360 0.0 0.0 0.05 0.89 0.89 96 1005.4
20260507031504 8 360 0.0 0.0 0.05 0.89 0.89 96 1005.3
20260507030005 8 360 0.0 0.0 0.05 0.86 0.86 96 1005.3
20260507024559 8 360 0.0 0.0 0.05 0.84 0.84 96 1005.1
20260507023056 9 360 0.0 0.0 0.05 0.84 0.84 96 1004.9
20260507021554 10 360 0.0 0.0 0.08 0.84 0.84 96 1004.8
20260507020052 10 360 0.0 0.0 0.05 0.81 0.81 96 1004.8
20260507014552 11 360 0.0 0.0 0.15 0.79 0.79 96 1004.8
20260507013056 11 360 0.0 0.0 0.18 0.79 0.79 96 1004.9
20260507011545 11 360 0.0 0.0 0.15 0.76 0.76 95 1004.8
20260507010053 12 360 0.0 0.0 0.15 0.76 0.76 94 1004.7
20260507004539 13 360 0.0 0.0 0.03 0.64 0.64 95 1004.3
20260507003038 13 163 0.0 0.0 0.03 0.61 0.61 95 1003.9
20260507001538 13 360 0.0 0.0 0.03 0.61 0.61 95 1003.8
20260507000036 13 360 0.0 0.0 0.03 0.61 0.61 94 1003.5
20260506234537 13 360 0.0 0.0 0.03 0.64 0.61 94 1003.5
20260506233053 14 360 0.0 0.0 0.00 0.61 0.58 93 1003.3
20260506231538 14 163 0.0 0.0 0.00 0.61 0.58 93 1003.2
20260506230033 14 360 0.0 0.0 0.00 0.61 0.58 92 1003.0
20260506224531 15 360 0.0 0.0 0.00 0.64 0.58 92 1003.4
20260506223030 15 360 0.0 0.0 0.00 0.64 0.58 92 1003.3
20260506221528 15 360 0.0 0.0 0.00 0.64 0.58 92 1003.7
20260506220030 15 360 0.0 0.0 0.00 0.64 0.58 92 1003.6
20260506214527 15 360 0.0 0.0 0.00 0.64 0.58 92 1003.7
20260506213027 15 150 0.0 0.0 0.00 0.64 0.58 92 1003.9
20260506211528 15 178 0.0 0.0 0.00 0.64 0.58 93 1003.7
20260506210033 15 360 0.0 0.0 0.05 0.64 0.58 93 1003.9
20260506204524 15 123 0.0 0.0 0.18 0.64 0.58 93 1003.9
20260506203022 15 103 0.0 0.0 0.23 0.64 0.58 93 1004.3
20260506201525 14 184 0.0 0.0 0.25 0.64 0.58 93 1004.4
20260506200034 14 360 0.0 0.0 0.20 0.56 0.51 92 1004.5
20260506194518 15 146 0.0 0.0 0.10 0.46 0.41 91 1004.5
20260506193016 14 360 0.0 0.0 0.08 0.41 0.36 92 1004.6
20260506191514 15 158 0.0 0.0 0.08 0.38 0.33 92 1004.8
20260506190014 15 360 0.0 0.0 0.10 0.36 0.30 92 1005.2
20260506184512 15 86 0.0 0.0 0.18 0.36 0.30 91 1005.3
20260506183011 15 360 0.0 0.0 0.20 0.33 0.28 91 1005.3